FW6802 Weather Reports


Display with metric or nautical units.
time (UTC)temp
F
wind
direction
speed
MPH
gust
MPH
rain 1hr
in
rain 24hr
in
rain mn
in
humidity
%
barometer
mb
20260901011953 83 183 1.0 12.0 0.00 0.00 0.00 78 1014.0
20260901011452 84 183 1.0 12.0 0.00 0.00 0.00 78 1014.0
20260901010951 84 183 0.0 12.0 0.00 0.00 0.00 77 1013.9
20260901010450 84 183 1.0 12.0 0.00 0.00 0.00 77 1014.0
20260901005949 84 184 0.0 12.0 0.00 0.00 0.00 77 1013.9
20260901004933 85 184 1.0 12.0 0.00 0.00 0.00 76 1013.7
20260901003917 85 184 0.0 12.0 0.00 0.00 0.00 75 1013.9
20260901003416 85 188 1.0 12.0 0.00 0.00 0.00 74 1013.7
20260901002916 86 187 1.0 12.0 0.00 0.00 0.00 74 1013.9
20260901001900 86 178 2.0 12.0 0.00 0.00 0.00 73 1013.6
20260901001400 86 184 2.0 12.0 0.00 0.00 0.00 73 1013.5
20260901000900 86 169 2.0 12.0 0.00 0.00 0.00 72 1013.6
20260831235844 87 171 1.0 12.0 0.00 0.00 0.00 72 1013.2
20260831235344 87 195 2.0 12.0 0.00 0.00 0.00 71 1013.5
20260831234843 87 186 2.0 12.0 0.00 0.00 0.00 71 1013.3
20260831234343 88 180 3.0 12.0 0.00 0.00 0.00 70 1013.3
20260831233328 88 175 4.0 12.0 0.00 0.00 0.00 69 1013.7
20260831232827 89 188 3.0 12.0 0.00 0.00 0.00 68 1012.6
20260831232326 89 181 4.0 12.0 0.00 0.00 0.00 67 1011.0
20260831231826 89 184 3.0 12.0 0.00 0.00 0.00 67 1011.4
20260831231326 90 190 3.0 12.0 0.00 0.00 0.00 66 1011.9
20260831230825 90 193 4.0 12.0 0.00 0.00 0.00 66 1012.4
20260831230324 90 175 3.0 12.0 0.00 0.00 0.00 66 1013.0
20260831225824 90 178 3.0 12.0 0.00 0.00 0.00 65 1013.3
20260831224807 90 170 4.0 12.0 0.00 0.00 0.00 64 1014.0
20260831223751 91 190 3.0 12.0 0.00 0.00 0.00 63 1014.2
20260831222736 91 184 5.0 12.0 0.00 0.00 0.00 61 1014.1
20260831221720 92 189 5.0 12.0 0.00 0.00 0.00 61 1014.5
20260831220704 92 201 6.0 12.0 0.00 0.00 0.00 59 1014.0
20260831220203 92 201 6.0 12.0 0.00 0.00 0.00 59 1013.5
20260831215703 93 204 6.0 12.0 0.00 0.00 0.00 58 1013.8
20260831215202 93 204 5.0 12.0 0.00 0.00 0.00 57 1013.8
20260831214702 93 197 6.0 12.0 0.00 0.00 0.00 56 1014.3
20260831214202 93 183 7.0 12.0 0.00 0.00 0.00 55 1014.0
20260831213702 93 199 5.0 12.0 0.00 0.00 0.00 55 1014.6
20260831213201 94 214 7.0 12.0 0.00 0.00 0.00 54 1015.0
20260831212145 94 198 4.0 14.0 0.00 0.00 0.00 54 1014.0
20260831211645 94 213 6.0 14.0 0.00 0.00 0.00 53 1013.9
20260831211144 94 190 5.0 12.0 0.00 0.00 0.00 54 1013.4
20260831210643 94 212 8.0 12.0 0.00 0.00 0.00 54 1014.0
20260831210140 94 188 6.0 12.0 0.00 0.00 0.00 54 1014.0
20260831205639 94 205 7.0 12.0 0.00 0.00 0.00 53 1014.3
20260831205139 94 193 5.0 12.0 0.00 0.00 0.00 52 1013.9
20260831204638 95 195 6.0 12.0 0.00 0.00 0.00 52 1014.3
20260831204137 94 216 4.0 12.0 0.00 0.00 0.00 53 1014.4
20260831203636 94 214 6.0 12.0 0.00 0.00 0.00 52 1014.5
20260831203135 94 178 6.0 12.0 0.00 0.00 0.00 53 1014.1
20260831202635 94 185 5.0 12.0 0.00 0.00 0.00 53 1014.4
20260831202134 94 198 6.0 12.0 0.00 0.00 0.00 53 1014.4
20260831201117 95 190 6.0 12.0 0.00 0.00 0.00 50 1014.7
20260831200616 95 178 5.0 14.0 0.00 0.00 0.00 50 1014.7
20260831200115 95 198 6.0 14.0 0.00 0.00 0.00 50 1015.0
20260831195615 95 218 5.0 14.0 0.00 0.00 0.00 50 1014.9
20260831194600 95 210 5.0 13.0 0.00 0.00 0.00 50 1015.0
20260831194059 95 211 5.0 13.0 0.00 0.00 0.00 50 1015.3
20260831193558 95 226 7.0 13.0 0.00 0.00 0.00 49 1015.1
20260831193058 96 213 6.0 12.0 0.00 0.00 0.00 49 1015.2
20260831192557 96 196 4.0 12.0 0.00 0.00 0.00 48 1015.5
20260831192056 96 208 4.0 12.0 0.00 0.00 0.00 51 1015.7
20260831191041 96 223 4.0 12.0 0.00 0.00 0.00 52 1015.8
20260831190540 95 233 4.0 13.0 0.00 0.00 0.00 50 1015.8
20260831190039 95 196 6.0 13.0 0.00 0.00 0.00 49 1015.4
20260831185538 95 211 8.0 13.0 0.00 0.00 0.00 49 1015.6
20260831185037 95 257 5.0 14.0 0.00 0.00 0.00 51 1015.8
20260831184021 95 208 5.0 14.0 0.00 0.00 0.00 52 1015.8
20260831183520 95 230 3.0 14.0 0.00 0.00 0.00 53 1015.9
20260831183020 95 252 4.0 14.0 0.00 0.00 0.00 52 1015.9
20260831182520 95 214 4.0 14.0 0.00 0.00 0.00 52 1016.0
20260831182020 95 225 6.0 14.0 0.00 0.00 0.00 53 1015.8
20260831181520 94 252 3.0 14.0 0.00 0.00 0.00 55 1016.1
20260831181020 93 223 5.0 14.0 0.00 0.00 0.00 55 1016.1
20260831180520 93 239 6.0 13.0 0.00 0.00 0.00 54 1016.0
20260831180020 93 246 5.0 13.0 0.00 0.00 0.00 55 1016.2
20260831175520 93 235 6.0 13.0 0.00 0.00 0.00 55 1016.2
20260831175020 93 238 7.0 13.0 0.00 0.00 0.00 55 1015.9
20260831174520 93 241 5.0 12.0 0.00 0.00 0.00 55 1016.0
20260831174020 94 228 6.0 12.0 0.00 0.00 0.00 56 1016.1
20260831173520 94 229 5.0 12.0 0.00 0.00 0.00 55 1016.1
20260831173020 93 226 4.0 13.0 0.00 0.00 0.00 57 1016.0
20260831172520 93 235 5.0 13.0 0.00 0.00 0.00 57 1016.1
20260831172020 92 249 5.0 14.0 0.00 0.00 0.00 57 1016.6
20260831171520 92 208 6.0 14.0 0.00 0.00 0.00 58 1016.3
20260831171019 92 219 7.0 15.0 0.00 0.00 0.00 58 1016.1
20260831170519 92 217 7.0 15.0 0.00 0.00 0.00 58 1016.3
20260831170019 92 209 6.0 13.0 0.00 0.00 0.00 58 1016.3
20260831165519 92 215 6.0 13.0 0.00 0.00 0.00 58 1016.3
20260831165019 92 198 5.0 13.0 0.00 0.00 0.00 58 1016.8
20260831164520 92 233 6.0 13.0 0.00 0.00 0.00 58 1016.3
20260831164020 92 228 6.0 13.0 0.00 0.00 0.00 58 1016.5
20260831163004 91 208 8.0 13.0 0.00 0.00 0.00 59 1016.5
20260831162503 91 217 4.0 12.0 0.00 0.00 0.00 62 1016.6
20260831162003 91 227 6.0 12.0 0.00 0.00 0.00 61 1016.6
20260831160947 90 207 4.0 11.0 0.00 0.00 0.00 65 1016.7
20260831154901 89 184 4.0 12.0 0.00 0.00 0.00 68 1016.5
20260831154400 88 182 3.0 12.0 0.00 0.00 0.00 70 1016.1
20260831153901 87 229 3.0 12.0 0.00 0.00 0.00 70 1016.5
20260831153400 87 216 5.0 12.0 0.00 0.00 0.00 71 1016.7
20260831152900 86 214 4.0 12.0 0.00 0.00 0.00 72 1016.4
20260831151844 86 194 3.0 12.0 0.00 0.00 0.00 71 1016.4
20260831151343 86 203 4.0 12.0 0.00 0.00 0.00 71 1016.5
20260831150843 86 195 2.0 12.0 0.00 0.00 0.00 72 1016.5
20260831150343 86 205 5.0 12.0 0.00 0.00 0.00 71 1016.6
20260831145326 85 216 5.0 12.0 0.00 0.00 0.00 73 1016.4
20260831144826 84 198 3.0 12.0 0.00 0.00 0.00 75 1016.3
20260831144327 83 226 5.0 12.0 0.00 0.00 0.00 75 1016.2
20260831143826 83 201 3.0 12.0 0.00 0.00 0.00 75 1015.9
20260831143326 83 194 5.0 12.0 0.00 0.00 0.00 75 1016.0
20260831142824 82 219 5.0 12.0 0.00 0.00 0.00 76 1016.4
20260831142323 82 214 4.0 12.0 0.00 0.00 0.00 77 1016.1
20260831141307 80 187 3.0 12.0 0.00 0.00 0.00 79 1016.1
20260831140250 80 175 5.0 12.0 0.00 0.00 0.00 78 1015.9
20260831135750 80 195 5.0 12.0 0.00 0.00 0.00 78 1016.0
20260831135250 80 198 3.0 12.0 0.00 0.00 0.00 79 1016.0
20260831134749 79 195 2.0 12.0 0.00 0.00 0.00 81 1016.1
20260831134248 78 181 3.0 12.0 0.00 0.00 0.00 81 1016.1
20260831133748 78 197 3.0 12.0 0.00 0.00 0.00 81 1015.9
20260831132731 78 188 1.0 12.0 0.00 0.00 0.00 81 1015.9
20260831132231 78 188 3.0 12.0 0.00 0.00 0.00 81 1015.8
20260831131731 78 181 3.0 12.0 0.00 0.00 0.00 81 1016.0
20260831131229 78 197 2.0 12.0 0.00 0.00 0.00 81 1016.0
20260831130213 77 169 3.0 12.0 0.00 0.00 0.00 81 1015.8
20260831125713 76 198 2.0 12.0 0.00 0.00 0.00 82 1015.6
20260831125212 76 172 2.0 12.0 0.00 0.00 0.00 84 1015.8
20260831124712 75 168 3.0 12.0 0.00 0.00 0.00 84 1015.8
20260831124211 75 188 2.0 12.0 0.00 0.00 0.00 85 1015.6
20260831123711 74 171 1.0 12.0 0.00 0.00 0.00 86 1015.6
20260831123210 74 175 1.0 12.0 0.00 0.00 0.00 87 1015.5
20260831122710 73 171 2.0 12.0 0.00 0.00 0.00 88 1015.5
20260831122210 73 169 1.0 12.0 0.00 0.00 0.00 88 1015.5
20260831120639 73 167 2.0 12.0 0.00 0.00 0.00 88 1015.5
20260831120138 73 166 2.0 12.0 0.00 0.00 0.00 88 1015.4
20260831115638 73 167 1.0 12.0 0.00 0.00 0.00 88 1015.2
20260831114623 73 162 2.0 12.0 0.00 0.00 0.00 87 1015.5
20260831114122 73 162 2.0 12.0 0.00 0.00 0.00 87 1015.2
20260831113621 73 161 1.0 12.0 0.00 0.00 0.00 87 1015.3
20260831113121 73 161 0.0 12.0 0.00 0.00 0.00 87 1015.3
20260831112620 73 161 1.0 12.0 0.00 0.00 0.00 87 1015.6
20260831112119 73 160 1.0 12.0 0.00 0.00 0.00 87 1015.5
20260831111103 73 160 1.0 12.0 0.00 0.00 0.00 86 1015.5
20260831110602 73 163 1.0 12.0 0.00 0.00 0.00 86 1015.2
20260831110101 73 164 1.0 12.0 0.00 0.00 0.00 86 1015.5
20260831105601 73 164 1.0 12.0 0.00 0.00 0.00 86 1015.5
20260831105101 73 164 1.0 12.0 0.00 0.00 0.00 86 1015.1
20260831104600 73 164 0.0 12.0 0.00 0.00 0.00 86 1015.4
20260831104059 73 164 0.0 12.0 0.00 0.00 0.00 86 1015.4
20260831103558 73 164 0.0 12.0 0.00 0.00 0.00 86 1015.2
20260831103058 73 164 0.0 12.0 0.00 0.00 0.00 86 1015.2
20260831102557 73 164 0.0 12.0 0.00 0.00 0.00 86 1014.9
20260831101542 73 165 0.0 12.0 0.00 0.00 0.00 86 1015.0
20260831101041 73 165 1.0 12.0 0.00 0.00 0.00 85 1015.1
20260831100541 74 165 0.0 12.0 0.00 0.00 0.00 85 1014.9
20260831100041 74 165 0.0 12.0 0.00 0.00 0.00 85 1015.0
20260831095025 74 165 0.0 12.0 0.00 0.00 0.00 84 1014.9
20260831094525 74 165 0.0 12.0 0.00 0.00 0.00 84 1014.9
20260831094024 74 165 0.0 12.0 0.00 0.00 0.00 83 1015.0
20260831093524 74 165 0.0 12.0 0.00 0.00 0.00 83 1014.8
20260831092509 74 165 0.0 12.0 0.00 0.00 0.00 83 1015.3
20260831092009 75 165 0.0 12.0 0.00 0.00 0.00 82 1014.9
20260831091509 75 165 0.0 12.0 0.00 0.00 0.00 82 1014.7
20260831091009 75 164 0.0 12.0 0.00 0.00 0.00 82 1015.0
20260831083851 75 164 0.0 12.0 0.00 0.00 0.00 82 1014.9
20260831083351 75 164 0.0 12.0 0.00 0.00 0.00 82 1015.0
20260831082336 75 164 0.0 12.0 0.00 0.00 0.00 82 1014.9
20260831081836 75 164 0.0 12.0 0.00 0.00 0.00 82 1014.7
20260831080821 75 163 0.0 12.0 0.00 0.00 0.00 81 1014.8
20260831080321 75 163 0.0 12.0 0.00 0.00 0.00 81 1014.7
20260831075820 75 163 0.0 12.0 0.00 0.00 0.00 81 1014.7
20260831074247 75 163 0.0 12.0 0.00 0.00 0.00 80 1014.5
20260831072715 76 163 0.0 12.0 0.00 0.00 0.00 79 1014.5
20260831072214 76 164 1.0 12.0 0.00 0.00 0.00 79 1014.4
20260831071159 76 160 1.0 12.0 0.00 0.00 0.00 79 1014.4
20260831070658 76 186 1.0 12.0 0.00 0.00 0.00 78 1014.4
20260831065126 76 183 1.0 12.0 0.00 0.00 0.00 78 1014.4
20260831064626 76 195 1.0 12.0 0.00 0.00 0.00 78 1014.5
20260831064125 77 182 1.0 12.0 0.00 0.00 0.00 78 1014.8
20260831063625 77 168 1.0 12.0 0.00 0.00 0.00 78 1014.6
20260831062609 77 172 1.0 12.0 0.00 0.00 0.00 78 1014.6
20260831062109 77 188 1.0 12.0 0.00 0.00 0.00 78 1015.0
20260831061609 77 187 1.0 12.0 0.00 0.00 0.00 79 1014.5
20260831061108 77 157 1.0 12.0 0.00 0.00 0.00 79 1014.4
20260831060608 77 163 4.0 12.0 0.00 0.00 0.00 79 1014.4
20260831060107 77 160 3.0 12.0 0.00 0.00 0.00 78 1014.7
20260831055607 77 167 2.0 12.0 0.00 0.00 0.00 78 1014.9
20260831055107 77 176 3.0 12.0 0.00 0.00 0.00 79 1015.3
20260831054606 77 187 2.0 12.0 0.00 0.00 0.00 79 1015.4
20260831054106 76 188 1.0 12.0 0.00 0.00 0.00 79 1015.4
20260831053606 76 182 2.0 12.0 0.00 0.00 0.00 80 1015.3
20260831052550 76 182 1.0 12.0 0.00 0.00 0.00 80 1015.0
20260831052050 76 179 2.0 12.0 0.00 0.00 0.00 80 1015.1
20260831051035 76 215 1.0 12.0 0.00 0.00 0.00 80 1015.5
20260831050535 76 194 0.0 12.0 0.00 0.00 0.00 80 1015.3
20260831050034 77 163 1.0 12.0 0.00 0.00 0.00 80 1015.0
20260831044502 77 177 1.0 12.0 0.00 0.00 0.00 80 1015.1
20260831044002 77 169 2.0 12.0 0.00 0.00 0.00 81 1015.1
20260831043502 77 175 2.0 12.0 0.00 0.00 0.00 81 1015.1
20260831043002 76 163 3.0 12.0 0.00 0.00 0.00 81 1014.8
20260831042502 76 178 3.0 12.0 0.00 0.00 0.00 82 1015.1
20260831042001 76 163 2.0 12.0 0.00 0.00 0.00 82 1015.1
20260831041501 76 162 0.0 12.0 0.00 0.00 0.00 82 1014.7
20260831041001 76 162 1.0 12.0 0.00 0.00 0.00 82 1014.9
20260831040500 77 149 1.0 12.0 0.00 0.00 0.00 82 1014.9
20260831035959 77 142 2.0 12.0 0.00 0.00 0.00 82 1014.9
20260831035458 77 145 2.0 12.0 0.00 0.00 0.00 83 1014.8
20260831034958 77 149 1.0 12.0 0.00 0.00 0.00 83 1014.9
20260831034458 77 142 0.0 12.0 0.00 0.00 0.00 83 1015.0
20260831033958 77 144 1.0 12.0 0.00 0.00 0.00 82 1015.2
20260831033457 77 145 1.0 12.0 0.00 0.00 0.00 82 1015.0
20260831032956 77 148 2.0 12.0 0.00 0.00 0.00 82 1015.2
20260831032456 77 144 1.0 12.0 0.00 0.00 0.00 82 1015.1
20260831031955 77 141 2.0 12.0 0.00 0.00 0.00 81 1015.3
20260831031454 78 139 2.0 12.0 0.00 0.00 0.00 81 1014.9
20260831030954 78 141 1.0 12.0 0.00 0.00 0.00 81 1015.0
20260831030454 78 143 2.0 12.0 0.00 0.00 0.00 80 1015.2
20260831025953 78 149 1.0 12.0 0.00 0.00 0.00 80 1015.0
20260831025452 78 151 1.0 12.0 0.00 0.00 0.00 80 1015.1
20260831024435 78 145 2.0 12.0 0.00 0.00 0.00 80 1015.1
20260831023934 78 146 2.0 12.0 0.00 0.00 0.00 79 1015.0
20260831023433 78 145 2.0 12.0 0.00 0.00 0.00 79 1015.1
20260831021902 79 145 2.0 12.0 0.00 0.00 0.00 79 1015.2
20260831021402 79 141 2.0 12.0 0.00 0.00 0.00 78 1015.2
20260831020901 79 139 2.0 12.0 0.00 0.00 0.00 79 1015.3
20260831020401 79 133 1.0 12.0 0.00 0.00 0.00 78 1015.2
20260831015345 79 151 0.0 12.0 0.00 0.00 0.00 78 1014.9
20260831014844 79 151 1.0 12.0 0.00 0.00 0.00 77 1015.1
20260831014343 79 152 0.0 12.0 0.00 0.00 0.00 77 1015.1
20260831013842 79 152 0.0 12.0 0.00 0.00 0.00 78 1015.1
20260831013342 80 152 0.0 12.0 0.00 0.00 0.00 77 1014.8
20260831012842 80 152 0.0 12.0 0.00 0.00 0.00 77 1014.6
20260831012341 80 152 0.0 12.0 0.00 0.00 0.00 76 1014.8